Regional Weather Roundup
Issued by NWS Green Bay, WI

Home | Current Version | Previous Version | Text Only | Print | Product List | Glossary On
Versions: 1 2 3 4 5 6 7 8 9 10 11 12 13 14 15 16 17 18 19 20 21 22 23 24 25 26 27 28 29 30 31 32 33 34 35 36 37 38 39 40 41 42 43 44 45 46 47 48 49 50
000
ASUS43 KGRB 222210
RWRGRB

NORTH-CENTRAL AND NORTHEAST WISCONSIN REGIONAL WEATHER ROUNDUP
NATIONAL WEATHER SERVICE GREEN BAY WI
500 PM CDT TUE APR 22 2014

WIZ005-009-010>012-018-019-222300-
NORTH CENTRAL WISCONSIN

CITY           SKY/WX    TMP DP  RH WIND       PRES   REMARKS
IRONWOOD       SUNNY     45  25  45 NW12      30.04S
MANITOWISH WTR MOSUNNY   44  24  46 N12G17    30.04S
ARBOR VITAE    SUNNY     46  25  43 N12G21    30.04S
EAGLE RIVER    CLOUDY    43  24  47 N13G21    30.03F
LAND O LAKES   CLOUDY    41  26  54 N13       30.04F
RHINELANDER    PTSUNNY   42  24  49 N8G20     30.04S
PHILLIPS       SUNNY     46  24  41 N14       30.04S
ANTIGO         MOSUNNY   44  28  54 N20       30.02S
TOMAHAWK       SUNNY     46  24  42 N10G18    30.04S
MERRILL        MOSUNNY   47  25  42 NE15G22   30.03S
$$

WIZ013-073-222300-
NORTHEAST WISCONSIN

CITY           SKY/WX    TMP DP  RH WIND       PRES   REMARKS
IRON MOUNTAIN  CLOUDY    40  26  57 NW14      30.01R
MARINETTE      CLOUDY    45  27  49 N16G22    30.00S
OCONTO         CLOUDY    46  27  48 N15G25    30.01S
$$

WIZ017-030-035>037-045-222300-
CENTRAL WISCONSIN

CITY           SKY/WX    TMP DP  RH WIND       PRES   REMARKS
MEDFORD        SUNNY     48  26  41 N8G17     30.03S
WAUSAU         SUNNY     50  22  33 N16G22    30.01R
MOSINEE        MOSUNNY   48  25  40 NW15G21   30.03R
MARSHFIELD     MOSUNNY   53  25  33 N15G23    30.01F
WISC RAPIDS    SUNNY     54  24  31 N16G29    30.03R
STEVENS POINT  MOSUNNY   48  23  37 N15       30.02S
WAUPACA        MOSUNNY   55  21  26 NW15      30.01S
SHAWANO        MOSUNNY   50  27  40 N12       30.02R
CLINTONVILLE   MOSUNNY   50  23  34 N13       30.01S
$$

WIZ038-039-048-051-222300-
FOX VALLEY

CITY           SKY/WX    TMP DP  RH WIND       PRES   REMARKS
NWS GREEN BAY  SUNNY     49  30  48 NW15G26   30.02R
APPLETON       MOSUNNY   50  25  37 N15G22    30.01R
OSHKOSH        SUNNY     53  26  35 N15G26    30.00R
FOND DU LAC    MOSUNNY   51  28  41 NE20      30.00R
$$

WIZ022-050-052-222300-
EAST CENTRAL WISCONSIN

CITY           SKY/WX    TMP DP  RH WIND       PRES   REMARKS
STURGEON BAY   CLOUDY    45  27  49 NW15      30.01R
MANITOWOC      MOSUNNY   47  27  45 N23G31    30.01R
SHEBOYGAN      CLOUDY    50  28  42 N12G23    29.98S
$$

LMZ563-521-522-541>543-222300-
LAKESHORE

STATION/POSITION TIME  TEMP    WIND        PRES    VSBY  WAVE
                       AIR SEA DIR/SP/G                  HT/PER
                 (UTC) (F)     (DEG/KT/KT) (MB)    (MI)  (FT/S)
SHEBOYGAN LKSHOR 2200   43      30/ 16/ 18 1016.4R
KEWAUNEE LKSHORE 2200   46     320/ 12/ 21 1016.5S
TWO RIVERS CG    2100   64 32                N/A       6   1
NORTHPORT PIER   2200   35     330/  9/ 12 1015.6S
SISTER BAY LKSHO 2100   42     360/ 14/ 16   N/A
STURGEON BAY CG  2100   45     310/  9     1026.0   3 1/2  1
MENOMINEE LKSHOR 2200   42     310/ 18/ 23 1016.5R
$$



USA.gov is the U.S. government's official web portal to all federal, state and local government web resources and services.